User: anonymous   Login
Location: Unspecified
(0.0000°N, 0.0000°E)
Time: 12:08:47
(UTC+01:00)
Language:

Meteor 2-8 Rocket - Orbit

View from above orbital plane
View from above orbital plane
View from above satellite
View from above satellite

Ground track
Ground track

The orbit data is extracted from the following two-line orbital elements,

1 13114U 82025B   15061.34174409  .00000030  00000-0  13803-4 0  9994
2 13114 082.5423 149.4501 0014152 348.7131 074.2923 13.84638753664461
Epoch (UTC): 02 March 2015 08:12:06
Eccentricity: 0.0014152
inclination: 82.5423°
perigee height: 937 km
apogee height: 958 km
right ascension of ascending node: 149.4501°
argument of perigee: 348.7131°
revolutions per day: 13.84638753
mean anomaly at epoch: 74.2923°
orbit number at epoch: 66446

The dashed part of the orbit path shows where the satellite is in the earth's shadow,  

DLR